Wetbulb
64.86 68.80 74.62 74.29 73.80 73.27 72.48 71.46 71.44 71.16 70.70 69.60 68.67 68.45 68.07 67.68 67.25 66.57 65.97 65.55 65.34 65.81 66.32 67.04 67.76 68.25 68.46 68.84 69.17 69.75 70.45 70.85 73.17 73.70 74.46 75.15 75.13 74.18 74.70 75.97 76.14 74.51 75.75
65.80 69.45 74.33 74.15 73.90 73.06 72.88 72.40 72.02 71.88 71.29 70.18 69.04 68.87 68.95 68.30 67.86 67.51 67.27 66.41 66.02 66.29 66.43 66.96 67.28 67.70 68.57 68.68 68.92 69.41 70.08 70.62 72.09 73.43 73.76 74.61 74.98 75.53 75.38 75.53 75.59 74.58 75.78
65.68 69.76 72.73 74.35 74.08 73.65 73.33 73.00 72.76 72.61 71.62 70.68 70.29 69.89 69.76 69.35 68.76 68.52 68.35 68.02 67.27 66.97 66.80 67.04 67.41 67.70 68.32 69.17 69.54 69.27 70.40 70.58 71.44 72.86 73.67 72.37 72.43 74.55 75.15 74.84 75.02 75.08 75.19
66.50 69.27 71.40 74.48 74.13 74.00 73.78 73.63 73.38 72.94 71.82 71.04 70.79 70.60 70.70 70.25 69.67 69.16 69.07 68.95 68.67 68.11 67.87 67.46 67.58 67.60 67.80 67.83 69.14 69.77 70.27 70.58 70.92 72.83 71.49 71.54 72.17 73.74 74.75 74.37 74.73 74.50 75.07
66.54 68.95 70.56 74.63 74.23 74.25 73.85 73.75 73.53 73.25 72.54 71.69 71.47 70.95 70.68 70.17 69.91 69.89 69.57 69.52 69.35 69.40 69.13 68.56 67.99 67.98 67.84 68.79 70.18 70.67 70.37 70.52 70.46 71.85 70.86 70.26 70.78 72.96 74.43 74.00 74.35 74.43 74.75
67.43 68.98 71.58 74.58 74.20 74.33 73.73 73.26 73.11 72.91 72.61 71.47 71.20 70.73 70.27 69.69 70.29 70.54 69.21 69.06 69.12 69.11 69.12 69.26 68.58 68.01 68.87 68.98 69.63 70.18 70.18 70.09 70.48 69.85 69.81 70.80 70.20 72.54 74.10 74.33 74.18 73.95 74.77
67.13 68.90 72.40 74.70 74.57 74.70 73.73 72.91 73.23 73.28 72.41 71.43 70.84 70.48 69.63 70.09 69.90 69.20 68.64 68.56 68.55 68.62 68.94 69.30 69.01 69.07 69.49 68.90 69.44 69.74 69.51 69.76 68.81 68.95 68.87 69.36 70.13 72.50 73.83 74.45 74.45 74.35 74.59
69.18 71.07 72.33 74.50 74.47 74.29 74.22 73.28 72.58 71.14 70.19 69.36 68.31 68.10 68.44 68.22 68.13 68.05 67.80 67.94 67.85 67.91 68.48 68.93 68.89 69.35 69.37 68.92 69.00 69.20 69.19 69.45 68.78 68.05 68.77 68.85 70.40 72.54 73.60 74.23 74.28 73.90 74.79
68.66 69.87 70.72 72.05 73.40 73.75 72.54 72.31 71.43 70.30 69.03 67.25 65.61 65.42 65.66 65.83 65.98 66.41 66.53 66.88 67.05 67.08 67.66 68.79 69.08 69.14 69.24 68.65 67.99 68.56 68.80 69.12 66.90 67.45 68.49 68.40 71.08 72.55 73.83 74.20 73.93 74.64 74.76
64.47 66.36 66.90 66.56 66.86 67.11 68.79 71.26 70.25 68.63 66.50 66.00 65.90 65.76 65.28 64.97 65.01 65.28 65.64 65.69 66.26 66.55 66.75 68.22 68.56 68.46 68.56 68.59 68.22 67.66 68.66 69.06 66.40 67.27 67.56 69.35 71.56 72.68 73.20 73.43 73.61 74.03 73.65
59.28 61.78 63.68 63.11 64.44 65.02 65.60 67.39 68.37 67.31 66.71 66.70 65.92 65.85 65.25 61.65 60.58 61.88 64.00 66.07 66.48 66.94 66.98 67.24 67.73 67.98 67.45 67.83 66.70 66.80 68.29 64.75 66.38 66.68 67.74 71.44 72.01 72.46 73.00 73.18 73.73 73.42 73.02
54.66 55.21 57.02 58.22 59.87 61.92 65.37 63.98 63.64 62.84 62.79 62.45 61.41 60.38 59.76 59.55 59.53 62.76 64.10 65.83 65.99 66.72 66.96 67.28 67.11 67.18 66.77 62.10 62.49 65.44 64.07 64.38 65.67 66.03 67.74 71.84 71.99 72.53 72.64 72.42 71.81 70.71 71.58
53.94 56.77 57.10 57.86 58.44 59.06 60.29 61.28 60.24 59.15 59.35 59.59 60.08 60.02 59.90 60.07 59.54 59.69 59.88 61.04 60.76 63.96 62.74 64.49 63.94 63.83 62.67 61.56 61.31 62.43 63.33 63.63 63.98 65.39 68.53 71.41 71.67 72.29 72.39 72.14 72.41 72.27 72.33
54.92 55.27 55.94 58.06 58.55 58.79 60.16 59.99 59.73 60.03 59.39 58.93 59.26 59.78 59.35 58.87 58.46 58.78 59.83 60.48 60.02 60.95 60.84 61.10 61.13 61.19 61.88 61.77 60.97 60.27 62.81 62.96 62.93 64.45 67.12 71.49 71.46 71.89 72.07 72.04 71.75 71.45 71.21
54.68 56.64 57.36 58.12 59.31 60.26 60.18 60.08 59.75 59.66 59.80 59.38 59.09 59.93 60.07 58.79 58.35 61.25 61.35 60.65 59.22 59.66 59.89 59.85 60.35 60.76 60.58 61.02 60.64 59.85 61.45 62.31 62.87 64.63 66.27 71.33 71.23 71.19 71.87 71.94 71.08 70.89 70.88
55.58 57.15 57.59 58.35 59.87 60.53 59.78 59.66 59.98 59.73 60.71 60.34 60.25 60.48 60.49 59.57 59.83 60.78 58.42 58.80 58.06 58.34 59.21 59.43 59.67 59.39 59.80 59.91 59.59 59.85 61.17 62.66 63.36 64.96 64.98 68.01 70.11 69.99 71.20 71.38 71.08 71.36 71.05
54.74 57.14 57.25 58.69 59.57 60.01 59.56 59.50 59.46 60.09 61.19 60.55 60.57 60.44 60.17 59.65 59.56 59.00 58.03 58.07 58.39 58.20 58.33 58.83 58.86 59.28 58.99 59.75 59.22 59.55 61.94 62.93 63.59 64.59 65.85 66.81 68.93 69.99 69.89 70.70 70.82 70.95 70.36
54.82 56.39 57.75 60.92 58.75 59.00 58.11 59.13 60.47 61.08 60.49 60.35 60.19 60.45 60.90 60.85 60.11 58.60 57.95 58.01 58.40 57.56 57.56 57.72 57.91 57.93 58.21 58.51 59.02 59.12 61.01 62.39 63.73 64.56 65.43 66.06 65.66 67.24 69.67 70.24 70.84 70.01 70.59
55.77 55.98 57.07 57.75 57.99 58.06 59.22 59.64 60.31 60.61 60.14 60.89 60.43 60.27 60.20 60.38 60.14 58.22 58.31 58.27 58.10 57.26 56.76 57.12 56.64 57.58 57.08 57.56 58.57 59.21 60.31 60.95 64.14 64.76 65.05 64.98 65.91 66.86 67.79 69.83 69.89 69.65 69.15
55.88 56.87 57.74 58.10 58.21 59.48 59.38 58.87 59.93 59.48 60.77 61.11 61.06 60.27 60.24 59.84 60.15 58.84 58.33 58.22 57.96 56.38 56.14 56.74 56.30 57.42 57.46 57.42 60.40 59.78 59.66 59.89 63.23 62.86 65.33 65.57 66.36 65.73 66.91 67.52 67.74 68.05 68.70
56.24 57.19 57.29 57.69 58.05 58.70 57.19 58.00 57.48 58.04 59.26 60.27 61.46 61.41 61.30 59.65 59.70 58.29 58.39 58.02 57.48 56.36 56.02 56.56 56.74 56.60 56.88 57.43 56.70 56.84 57.71 60.18 61.14 63.64 64.47 65.59 65.71 66.00 66.51 67.25 67.09 66.82 67.38
56.22 57.33 57.68 58.12 57.60 58.23 57.43 59.53 58.53 58.87 59.38 59.92 60.36 60.79 61.45 60.78 61.16 59.41 58.78 57.92 57.56 56.74 56.18 56.82 56.82 55.88 56.28 57.57 55.58 56.68 54.68 57.87 61.27 62.03 64.71 64.98 64.10 65.71 65.57 65.67 65.88 65.53 65.95
55.59 56.96 58.22 58.04 58.46 57.49 58.98 59.22 58.65 58.45 58.64 59.36 59.81 60.53 59.88 60.39 61.63 60.15 59.31 58.06 57.78 56.96 56.18 56.20 56.90 56.64 55.74 57.06 57.48 58.02 55.18 53.54 57.08 62.62 62.81 63.56 63.29 64.76 64.99 64.66 64.86 65.61 65.94
54.67 56.60 58.25 58.43 57.27 58.23 58.89 58.21 57.68 57.04 56.24 57.72 58.18 58.87 59.46 59.98 60.45 60.17 59.31 58.81 58.13 57.24 56.28 57.06 58.26 57.52 57.40 56.40 58.11 60.40 59.54 59.57 56.12 57.19 62.19 62.54 63.70 64.09 64.32 64.25 64.41 65.16 65.50
56.59 56.41 57.81 57.00 57.90 59.15 58.50 58.40 58.50 56.59 57.68 58.08 57.60 57.76 58.09 60.06 61.12 60.38 59.35 58.60 57.61 57.48 57.26 58.57 57.50 57.92 58.04 57.83 57.92 58.73 58.77 58.29 59.57 59.17 57.59 59.88 62.31 63.40 63.91 64.09 64.35 64.42 65.21
55.36 56.06 56.71 55.62 56.69 58.46 58.82 58.67 58.00 56.99 57.15 56.62 56.32 56.86 57.12 57.75 60.31 59.07 59.60 58.04 57.82 57.39 57.78 57.91 58.15 58.25 57.48 59.18 60.25 60.61 59.55 57.67 57.93 59.00 58.97 59.33 59.45 61.15 62.83 63.81 64.14 64.56 64.82
MSLP
1011.28 1011.40 1011.56 1011.90 1012.21 1012.55 1012.97 1013.28 1013.50 1013.64 1013.83 1014.02 1014.33 1014.47 1014.70 1014.84 1014.81 1014.73 1014.79 1014.95 1014.90 1014.90 1014.90 1014.95 1014.81 1014.75 1014.65 1014.74 1014.70 1014.64 1014.65 1014.69 1014.59 1014.50 1014.39 1014.17 1014.42 1014.83 1014.99 1014.99 1015.03 1015.35 1016.06
1009.89 1010.90 1011.28 1011.75 1012.01 1012.33 1012.72 1012.95 1013.29 1013.54 1013.66 1013.88 1014.01 1014.21 1014.35 1014.49 1014.61 1014.69 1014.66 1014.73 1014.69 1014.72 1014.66 1014.73 1014.66 1014.50 1014.48 1014.57 1014.59 1014.58 1014.57 1014.58 1014.51 1014.46 1014.38 1014.27 1014.33 1014.62 1014.79 1014.91 1014.98 1015.36 1015.93
1009.69 1010.31 1010.87 1011.37 1011.68 1011.96 1012.34 1012.62 1012.93 1013.21 1013.40 1013.63 1013.81 1014.00 1014.11 1014.26 1014.36 1014.45 1014.47 1014.49 1014.45 1014.46 1014.49 1014.55 1014.49 1014.40 1014.31 1014.33 1014.39 1014.47 1014.45 1014.49 1014.50 1014.41 1014.37 1014.42 1014.50 1014.57 1014.82 1014.85 1015.23 1015.23 1015.69
1009.54 1010.30 1010.88 1011.13 1011.51 1011.90 1012.23 1012.46 1012.80 1013.01 1013.15 1013.30 1013.56 1013.62 1013.84 1013.99 1014.11 1014.19 1014.21 1014.13 1014.08 1014.20 1014.27 1014.30 1014.17 1014.08 1014.11 1014.19 1014.32 1014.33 1014.42 1014.40 1014.33 1014.32 1014.34 1014.42 1014.54 1014.52 1014.73 1014.81 1015.20 1015.38 1015.52
1009.71 1010.14 1010.52 1010.96 1011.45 1011.82 1012.23 1012.54 1012.74 1012.82 1012.92 1012.93 1013.24 1013.30 1013.46 1013.62 1013.77 1013.79 1013.84 1013.84 1013.77 1013.81 1013.91 1013.97 1013.95 1013.91 1013.92 1013.99 1014.10 1014.21 1014.27 1014.25 1014.19 1014.30 1014.27 1014.36 1014.32 1014.42 1014.63 1014.86 1015.17 1015.42 1015.65
1009.41 1009.83 1010.31 1010.74 1011.12 1011.59 1011.93 1012.24 1012.46 1012.66 1012.63 1012.70 1012.93 1013.02 1013.13 1013.25 1013.33 1013.43 1013.43 1013.44 1013.41 1013.41 1013.47 1013.51 1013.58 1013.65 1013.72 1013.87 1013.95 1013.96 1014.05 1014.07 1014.12 1014.22 1014.24 1014.10 1014.18 1014.21 1014.45 1014.66 1014.95 1015.32 1015.70
1009.41 1009.57 1010.13 1010.47 1010.85 1011.09 1011.50 1011.72 1012.04 1012.39 1012.38 1012.48 1012.70 1012.76 1012.78 1012.88 1012.92 1013.08 1013.10 1013.04 1013.02 1013.03 1013.06 1013.15 1013.28 1013.51 1013.54 1013.68 1013.75 1013.79 1014.00 1013.98 1013.98 1014.11 1014.07 1014.04 1013.93 1013.99 1014.17 1014.29 1014.65 1015.10 1015.69
1009.04 1009.48 1009.79 1010.04 1010.40 1010.67 1011.09 1011.41 1011.63 1012.00 1012.19 1012.45 1012.69 1012.75 1012.72 1012.71 1012.80 1012.88 1012.84 1012.80 1012.73 1012.69 1012.72 1012.84 1012.96 1013.14 1013.21 1013.38 1013.60 1013.78 1013.89 1013.80 1013.79 1013.92 1013.86 1013.85 1013.74 1013.80 1014.01 1014.19 1014.40 1015.02 1015.53
1008.79 1009.24 1009.60 1009.85 1010.13 1010.42 1010.67 1011.04 1011.42 1011.75 1012.02 1012.22 1012.49 1012.57 1012.58 1012.52 1012.62 1012.64 1012.55 1012.53 1012.49 1012.45 1012.48 1012.54 1012.53 1012.73 1012.89 1013.12 1013.40 1013.62 1013.68 1013.62 1013.65 1013.72 1013.63 1013.58 1013.53 1013.56 1013.68 1013.91 1014.15 1014.67 1015.31
1008.64 1009.06 1009.52 1009.69 1009.92 1010.25 1010.65 1010.82 1011.22 1011.60 1011.90 1012.01 1012.11 1012.30 1012.31 1012.25 1012.42 1012.29 1012.22 1012.31 1012.20 1012.00 1012.00 1012.04 1012.15 1012.36 1012.65 1012.83 1013.12 1013.41 1013.50 1013.40 1013.31 1013.45 1013.41 1013.30 1013.21 1013.38 1013.45 1013.80 1014.03 1014.55 1015.27
1008.95 1009.03 1009.47 1009.81 1010.15 1010.35 1010.70 1010.81 1011.19 1011.50 1011.72 1011.78 1011.83 1011.90 1011.92 1012.07 1012.22 1012.13 1012.13 1011.94 1011.69 1011.55 1011.44 1011.48 1011.67 1012.02 1012.43 1012.66 1012.88 1013.08 1013.21 1013.27 1013.23 1013.24 1013.24 1013.10 1013.10 1013.08 1013.18 1013.62 1013.80 1014.50 1015.13
1008.85 1009.43 1009.51 1009.89 1010.25 1010.40 1010.49 1010.91 1011.28 1011.52 1011.51 1011.62 1011.70 1011.81 1011.78 1011.92 1011.98 1011.88 1011.73 1011.43 1011.18 1011.10 1011.21 1011.23 1011.44 1011.79 1012.12 1012.49 1012.79 1012.75 1013.00 1013.00 1013.06 1013.05 1013.12 1012.96 1012.98 1012.85 1013.07 1013.50 1013.83 1014.55 1015.19
1008.40 1008.98 1009.57 1010.01 1010.29 1010.39 1010.78 1011.03 1011.31 1011.53 1011.52 1011.55 1011.45 1011.47 1011.54 1011.76 1011.91 1011.80 1011.64 1011.48 1011.28 1011.13 1011.17 1011.12 1011.36 1011.66 1011.98 1012.31 1012.68 1012.77 1012.92 1012.85 1012.85 1012.87 1012.82 1012.76 1012.78 1012.73 1012.98 1013.27 1013.69 1014.23 1015.00
1008.18 1008.72 1009.31 1009.80 1009.98 1010.33 1010.38 1010.87 1011.06 1011.21 1011.16 1011.24 1011.22 1011.26 1011.51 1011.57 1011.63 1011.60 1011.48 1011.43 1011.37 1011.27 1011.27 1011.32 1011.46 1011.57 1011.86 1012.04 1012.40 1012.61 1012.68 1012.68 1012.70 1012.69 1012.70 1012.63 1012.54 1012.61 1012.83 1013.16 1013.83 1014.24 1015.01
1008.31 1008.81 1009.13 1009.52 1009.80 1010.11 1010.28 1010.56 1010.80 1010.93 1010.90 1010.85 1010.93 1010.98 1010.99 1011.23 1011.34 1011.24 1011.28 1011.22 1011.21 1011.12 1011.18 1011.36 1011.46 1011.63 1011.91 1011.89 1012.16 1012.32 1012.36 1012.40 1012.37 1012.41 1012.46 1012.21 1012.28 1012.54 1012.79 1013.12 1013.77 1014.36 1014.97
1007.74 1008.40 1008.60 1008.99 1009.39 1009.57 1010.05 1010.33 1010.46 1010.33 1010.28 1010.44 1010.49 1010.48 1010.51 1010.62 1010.81 1011.03 1011.15 1011.13 1011.14 1010.92 1010.93 1011.05 1011.29 1011.54 1011.76 1011.93 1012.17 1012.14 1012.30 1012.19 1012.20 1012.24 1012.30 1012.13 1012.13 1012.36 1012.73 1013.08 1013.68 1014.28 1014.89
1007.33 1008.04 1008.49 1008.70 1008.88 1009.23 1009.66 1009.88 1009.96 1009.89 1009.90 1010.18 1010.07 1010.04 1010.08 1010.19 1010.42 1010.79 1010.84 1010.88 1010.85 1010.62 1010.70 1010.91 1011.21 1011.45 1011.72 1011.87 1012.04 1012.05 1012.19 1011.99 1011.97 1012.00 1012.17 1012.13 1012.13 1012.24 1012.68 1013.13 1013.52 1014.20 1014.90
1007.12 1007.77 1008.03 1008.24 1008.61 1008.84 1009.34 1009.56 1009.61 1009.56 1009.61 1009.62 1009.60 1009.62 1009.66 1009.83 1010.07 1010.34 1010.43 1010.44 1010.28 1010.41 1010.61 1010.81 1011.08 1011.37 1011.57 1011.75 1011.77 1011.98 1012.07 1011.85 1011.68 1011.83 1012.10 1012.28 1012.36 1012.48 1012.89 1013.08 1013.62 1014.35 1015.02
1006.80 1007.33 1007.80 1008.01 1008.39 1008.68 1008.99 1009.24 1009.31 1009.29 1009.34 1009.23 1009.21 1009.36 1009.40 1009.52 1009.66 1009.93 1010.11 1010.08 1009.94 1010.28 1010.43 1010.59 1010.91 1011.14 1011.49 1011.60 1011.68 1011.87 1011.86 1011.77 1011.74 1011.79 1012.18 1012.27 1012.30 1012.36 1012.96 1013.26 1013.79 1014.72 1015.37
1006.68 1007.05 1007.59 1007.94 1008.07 1008.36 1008.72 1008.94 1009.03 1009.09 1009.00 1008.83 1009.00 1009.08 1009.13 1009.24 1009.29 1009.52 1009.71 1009.79 1009.78 1010.09 1010.34 1010.52 1010.74 1011.01 1011.20 1011.37 1011.54 1011.75 1011.75 1011.77 1011.85 1012.04 1012.25 1012.33 1012.46 1012.59 1013.01 1013.55 1014.31 1015.22 1015.61
1006.65 1007.13 1007.76 1008.00 1008.01 1008.32 1008.78 1009.03 1009.20 1009.21 1008.93 1008.77 1008.71 1008.65 1008.76 1008.89 1008.96 1009.21 1009.34 1009.51 1009.59 1009.89 1010.08 1010.31 1010.65 1010.95 1011.26 1011.43 1011.76 1012.17 1012.20 1011.97 1011.96 1012.30 1012.46 1012.56 1012.88 1012.86 1013.24 1014.06 1014.55 1015.37 1016.09
1006.62 1007.23 1007.72 1007.86 1007.96 1008.19 1008.49 1008.65 1008.82 1008.86 1008.80 1008.58 1008.46 1008.53 1008.30 1008.37 1008.51 1008.81 1009.06 1009.26 1009.37 1009.75 1009.95 1010.15 1010.46 1010.91 1011.19 1011.33 1011.67 1011.94 1012.48 1012.71 1012.59 1012.63 1012.80 1012.96 1013.24 1013.42 1013.87 1014.23 1014.29 1015.71 1016.42
1006.84 1007.23 1007.52 1007.74 1007.73 1007.94 1008.15 1008.46 1008.67 1008.78 1008.77 1008.53 1008.58 1008.51 1008.18 1008.12 1008.09 1008.40 1008.84 1009.06 1009.26 1009.59 1009.79 1009.88 1010.19 1010.59 1011.17 1011.30 1011.16 1011.43 1011.96 1012.34 1012.83 1012.99 1013.19 1013.33 1013.50 1013.93 1014.26 1014.55 1015.37 1016.19 1016.64
1006.62 1006.94 1007.23 1007.54 1007.58 1007.76 1008.00 1008.41 1008.64 1008.88 1008.87 1008.58 1008.58 1008.39 1008.28 1008.23 1008.23 1008.42 1008.71 1008.98 1009.14 1009.36 1009.54 1009.59 1009.72 1010.11 1010.60 1011.19 1011.26 1010.93 1011.14 1011.30 1012.09 1012.67 1013.19 1013.59 1013.97 1014.41 1014.90 1015.30 1015.94 1016.52 1016.91
1006.43 1006.82 1007.14 1007.36 1007.50 1007.62 1007.89 1008.20 1008.52 1008.76 1008.61 1008.60 1008.55 1008.54 1008.41 1008.40 1008.34 1008.56 1008.78 1008.99 1009.17 1009.22 1009.33 1009.38 1009.66 1009.94 1010.18 1010.70 1011.01 1011.24 1011.26 1011.22 1011.51 1011.89 1012.71 1013.69 1014.39 1014.86 1015.52 1016.00 1016.36 1016.61 1017.32
1006.35 1006.81 1007.10 1007.31 1007.55 1007.63 1007.85 1008.16 1008.39 1008.60 1008.52 1008.69 1008.78 1008.72 1008.66 1008.57 1008.55 1008.74 1008.89 1009.06 1009.26 1009.20 1009.41 1009.48 1009.69 1010.03 1010.15 1010.31 1010.61 1010.73 1010.78 1011.03 1011.54 1010.57 1013.05 1013.73 1014.34 1015.33 1015.74 1016.24 1016.72 1017.11 1017.54
Wind_Speed
9 13 21 20 19 18 17 17 15 14 13 13 12 12 11 10 9 7 7 6 6 7 8 9 9 8 7 8 8 8 7 7 9 9 10 14 11 13 13 16 19 14 16
14 14 21 19 19 19 18 17 15 13 13 12 10 9 8 9 9 8 7 7 7 8 9 10 11 10 9 8 9 8 7 7 8 10 11 12 11 12 13 16 16 15 17
16 14 17 20 20 20 19 17 16 14 14 12 11 11 11 11 10 10 9 9 8 8 10 11 12 11 10 10 10 9 7 7 7 10 9 5 5 10 13 15 17 19 19
14 12 13 20 20 19 17 15 14 14 13 12 13 12 11 12 13 12 11 10 9 10 11 12 12 13 12 11 11 9 7 8 7 8 4 5 5 10 12 15 19 20 20
12 12 13 20 18 16 14 12 11 12 12 12 12 12 12 12 14 14 13 13 13 13 13 12 12 14 13 12 9 10 8 8 7 6 4 5 5 8 13 15 19 21 19
12 12 13 18 16 14 13 12 12 13 11 12 12 12 12 13 13 12 14 15 15 15 15 15 14 14 13 13 11 10 8 8 7 3 4 5 6 11 15 17 19 21 20
9 8 11 18 16 15 14 13 13 11 11 11 12 12 12 13 13 14 14 15 16 17 17 16 16 14 13 11 12 9 7 8 5 3 4 5 5 12 15 17 20 20 20
13 9 11 17 17 16 15 13 11 10 9 8 5 5 8 10 12 15 16 16 17 18 18 19 17 16 13 11 10 8 9 9 6 3 4 4 9 14 18 19 19 20 21
12 12 9 11 14 17 15 14 13 12 10 8 6 8 10 11 14 16 17 18 19 20 20 18 17 17 15 13 11 10 10 11 5 4 4 4 12 16 21 20 21 22 21
10 11 10 8 7 7 7 14 13 11 10 10 9 9 9 9 11 12 14 15 18 19 20 19 18 17 16 14 10 10 11 12 5 4 4 4 14 16 21 21 22 22 21
6 8 7 7 6 7 6 7 10 12 11 11 10 9 7 4 6 8 10 14 15 17 19 18 17 17 18 15 12 12 12 3 4 3 3 10 11 17 22 22 22 22 21
7 5 6 7 7 7 5 5 5 5 4 5 5 5 3 5 5 6 9 12 12 11 17 18 16 17 16 4 3 10 3 4 4 4 3 13 12 18 21 23 23 23 22
7 5 8 8 7 8 6 4 2 1 3 3 5 5 4 3 3 3 3 4 3 6 3 7 7 5 6 4 4 4 4 4 3 3 6 13 14 20 24 24 23 25 25
9 9 8 8 7 6 4 4 4 3 3 3 4 5 4 3 4 4 3 4 4 3 3 3 3 5 6 6 6 5 6 4 3 3 5 14 15 17 22 24 25 24 22
9 8 9 9 7 6 5 3 3 4 4 5 4 5 4 4 4 3 3 3 3 3 3 4 4 4 5 5 5 6 6 6 6 3 3 15 16 18 22 23 26 25 24
11 10 9 9 8 7 5 5 5 4 5 4 4 5 6 5 4 4 4 4 4 3 4 4 4 4 4 4 4 6 5 5 6 6 4 5 17 21 19 22 24 23 25
9 10 9 9 8 8 7 6 4 4 4 4 4 6 5 5 5 5 4 4 5 3 4 4 4 3 4 3 5 5 4 7 5 6 4 3 7 17 18 18 22 23 27
10 11 9 7 8 7 5 5 4 4 4 4 4 4 6 6 6 5 4 4 4 3 4 3 4 3 4 4 4 3 4 5 6 5 4 3 3 3 12 17 21 24 23
11 10 9 8 8 7 5 3 4 6 4 4 4 4 5 5 5 5 4 4 4 3 4 3 2 3 3 4 4 4 5 3 4 3 5 5 5 5 4 17 22 24 28
9 9 8 6 7 6 2 1 2 3 3 3 4 4 5 5 5 4 3 5 3 3 3 2 3 2 2 3 3 4 3 3 2 4 5 3 4 4 7 10 12 14 24
8 9 8 7 6 3 1 1 1 3 2 3 3 6 6 5 5 5 4 4 3 4 4 4 3 4 3 2 3 1 2 3 4 4 5 5 5 5 8 9 7 9 10
9 8 8 7 6 4 2 2 2 2 3 3 1 3 4 5 6 5 5 4 4 3 4 5 4 2 2 4 4 3 3 3 3 2 4 5 7 7 7 10 10 10 8
9 9 8 8 7 4 3 2 1 2 2 1 1 3 2 2 5 5 4 4 4 3 4 4 5 5 3 1 2 4 3 3 3 2 4 5 8 6 7 9 11 10 10
8 8 8 7 7 4 5 2 3 2 2 1 1 2 0 1 2 3 4 4 4 3 5 5 5 4 4 4 0 2 2 5 4 5 5 5 7 8 9 7 9 10 9
8 8 7 8 6 6 5 3 3 1 1 1 1 2 0 1 0 3 4 4 3 1 3 5 5 5 3 4 4 2 1 3 4 3 6 7 6 5 6 8 8 8 9
7 7 7 7 5 5 4 4 5 4 4 4 1 1 1 1 1 3 4 4 2 3 4 3 4 5 3 4 3 4 4 4 4 5 7 9 9 5 6 6 8 8 6
Wind_Direction
212 179 180 175 170 172 177 180 180 179 177 178 185 184 184 184 181 181 184 201 217 246 251 257 257 253 261 268 268 268 284 301 304 292 231 219 197 174 178 159 145 133 141
159 174 177 176 176 179 184 185 185 186 186 191 196 207 213 209 205 203 202 211 218 234 249 252 254 257 251 262 266 265 273 290 305 302 227 217 215 197 174 163 151 144 142
156 168 174 181 183 184 187 186 187 190 191 196 204 213 219 225 231 227 218 219 226 234 243 249 250 246 253 257 259 263 268 278 290 301 239 217 228 210 181 171 160 150 147
155 162 175 185 186 188 189 188 190 192 196 203 213 218 225 229 232 237 234 233 234 238 240 243 250 252 245 251 261 264 264 272 277 295 242 213 218 216 201 181 171 165 156
154 168 180 183 184 187 188 189 193 199 206 215 227 225 228 234 238 238 239 243 244 240 237 241 247 248 249 251 250 259 251 263 262 287 216 212 196 214 210 187 179 173 165
164 171 177 176 179 180 185 192 199 212 219 225 232 232 233 242 246 244 242 242 245 246 249 241 240 248 245 245 252 259 272 256 255 257 219 232 202 210 207 187 182 174 166
155 158 167 172 173 177 186 194 207 223 226 231 238 241 244 248 248 251 253 252 248 247 247 242 242 236 238 233 249 251 259 245 244 234 233 216 219 211 204 190 184 177 169
152 151 165 169 173 178 185 188 187 175 172 176 201 234 254 258 259 254 252 254 254 251 243 239 235 232 227 221 230 252 248 243 245 242 235 214 212 211 205 195 179 174 167
151 155 164 170 178 179 179 176 174 179 182 186 208 235 250 258 261 259 257 256 255 254 251 247 240 230 229 215 219 236 251 241 223 241 241 220 223 215 199 193 177 172 167
160 166 173 173 169 160 160 173 180 179 184 191 210 225 238 242 254 264 261 257 255 253 249 243 242 234 226 215 213 232 247 241 231 239 241 219 219 216 197 188 175 169 162
173 176 173 150 146 146 161 175 181 189 199 205 215 237 228 219 246 267 267 262 254 250 251 244 240 227 222 218 219 227 243 228 228 235 233 224 219 208 193 183 171 164 160
185 164 150 145 154 160 157 168 172 209 224 200 205 210 211 225 235 243 264 277 272 263 249 245 238 218 215 191 227 224 221 223 223 229 218 225 217 198 189 178 164 159 171
166 138 151 147 160 140 140 172 183 205 211 217 222 228 221 227 254 268 288 299 291 273 278 237 218 202 201 172 201 220 235 225 226 227 220 225 209 205 190 178 174 176 175
153 150 152 146 134 145 137 158 182 170 182 215 230 238 216 225 236 250 242 264 261 247 238 214 193 188 184 180 203 216 230 219 226 232 222 213 195 197 195 184 176 172 172
143 154 159 155 147 160 146 180 186 206 213 225 229 219 208 215 228 222 250 250 245 228 217 211 200 195 198 198 211 215 231 219 224 216 214 207 194 190 178 168 174 173 182
154 160 157 155 162 151 175 196 213 216 236 237 241 228 234 209 208 220 234 237 244 208 217 202 200 197 205 208 226 234 240 230 220 213 216 211 197 189 190 188 183 180 175
162 154 162 161 160 163 194 209 224 232 231 236 238 227 225 198 202 213 224 236 238 220 218 212 210 194 209 217 232 232 210 231 220 198 198 180 198 193 186 190 193 191 164
147 160 165 157 162 176 202 230 237 237 233 238 228 220 223 210 210 210 217 232 234 215 202 195 178 200 215 211 230 207 201 213 206 178 152 165 181 162 179 174 163 158 169
156 152 151 141 160 177 207 221 248 247 243 241 220 211 222 222 222 212 221 232 219 212 204 195 164 164 189 225 231 187 200 173 196 142 151 155 148 137 154 164 153 142 145
146 139 137 150 152 161 186 296 288 276 262 230 216 211 217 224 223 212 224 229 189 191 188 162 157 185 186 218 224 172 188 156 204 153 147 151 117 145 143 148 153 150 156
130 128 148 152 163 139 144 283 292 248 263 253 198 215 224 227 228 210 200 220 186 183 194 171 156 179 233 165 102 125 104 119 162 131 167 129 110 102 116 132 135 146 161
145 152 157 172 159 172 150 205 191 228 262 239 242 252 239 221 213 199 202 214 189 164 180 174 148 118 180 185 143 135 105 20 32 161 119 131 131 114 132 124 124 127 154
149 165 169 176 166 163 149 114 43 15 302 356 273 260 244 200 171 184 198 205 178 176 190 175 162 151 153 86 177 148 127 175 127 94 137 140 124 118 117 131 123 130 129
169 166 163 167 158 154 155 132 173 191 254 256 235 257 209 139 169 163 173 175 173 180 189 183 173 156 142 158 357 32 182 157 157 149 135 123 122 123 128 131 132 139 131
155 160 164 151 153 165 178 137 144 194 257 106 76 106 63 347 139 164 154 175 154 161 172 179 158 150 149 136 152 162 98 54 120 146 131 132 113 111 121 142 145 138 141
149 144 148 149 160 189 187 159 141 132 124 101 119 108 300 57 66 118 122 140 148 142 156 190 148 138 136 127 155 173 168 161 163 104 131 131 135 120 118 123 136 137 117